EW3845 Weather Reports


time (UTC)temp
C
wind
direction
speed
KPH
gust
KPH
rain 1hr
cm
rain 24hr
cm
rain mn
cm
humidity
%
barometer
mb
20260505234620 11 22 0.0 0.0 0.05 0.30 0.10 95 1006.4
20260505233052 10 22 0.0 0.0 0.08 0.30 0.10 95 1006.5
20260505231551 11 22 0.0 0.0 0.05 0.28 0.08 95 1006.5
20260505230050 11 22 0.0 0.0 0.05 0.25 0.05 95 1006.6
20260505224548 11 22 0.0 0.0 0.05 0.23 0.05 95 1006.6
20260505223049 11 26 0.0 0.0 0.05 0.23 0.03 95 1006.7
20260505221547 11 25 0.0 0.0 0.05 0.23 0.03 95 1006.7
20260505220059 11 28 0.0 0.0 0.05 0.20 0.20 95 1006.8
20260505214545 11 28 0.0 0.0 0.05 0.20 0.20 95 1007.0
20260505213044 11 28 0.0 0.0 0.03 0.18 0.18 94 1007.0
20260505211549 11 36 0.0 0.0 0.03 0.18 0.18 94 1007.1
20260505210043 11 25 0.0 0.0 0.00 0.15 0.15 94 1007.2
20260505205041 11 20 0.0 0.0 0.00 0.79 0.15 94 1007.2
20260505204656 11 20 0.0 0.0 0.00 0.15 0.15 94 1007.1
20260505204553 11 21 0.0 0.0 0.00 0.79 0.15 94 1007.2
20260505204118 11 19 0.0 0.0 0.00 0.79 0.15 94 1007.3
20260505203548 11 17 0.0 0.0 0.00 0.79 0.15 94 1007.3
20260505203155 11 17 0.0 0.0 0.00 0.15 0.15 94 1007.2
20260505203053 11 17 0.0 0.0 0.00 0.79 0.15 94 1007.2
20260505202544 11 17 0.0 0.0 0.00 0.79 0.15 94 1007.2
20260505202051 11 18 0.0 0.0 0.00 0.79 0.15 94 1007.1
20260505201643 11 17 0.0 0.0 0.00 0.15 0.15 94 1007.1
20260505201542 11 17 0.0 0.0 0.00 0.79 0.15 94 1007.1
20260505201050 11 21 0.0 0.0 0.00 0.79 0.15 94 1007.1
20260505200103 11 17 0.0 0.0 0.00 0.15 0.15 94 1007.1
20260505194557 11 17 0.0 0.0 0.00 0.15 0.15 94 1007.0
20260505193059 11 16 0.0 0.0 0.00 0.15 0.15 93 1007.1
20260505191600 11 22 0.0 0.0 0.00 0.15 0.15 93 1007.1
20260505190056 11 21 0.0 0.0 0.00 0.15 0.15 93 1007.0
20260505184601 11 21 0.0 0.0 0.00 0.15 0.15 93 1006.9
20260505183053 11 20 0.0 0.0 0.00 0.15 0.15 93 1006.9
20260505182051 11 22 0.0 0.0 0.00 0.79 0.15 93 1006.9
20260505181648 11 22 0.0 0.0 0.00 0.15 0.15 93 1006.8
20260505181544 11 22 0.0 0.0 0.00 0.79 0.15 93 1006.9
20260505181051 11 20 0.0 0.0 0.00 0.79 0.15 93 1007.0
20260505180544 11 12 0.0 0.0 0.00 0.79 0.15 93 1007.0
20260505180151 11 26 0.0 0.0 0.00 0.15 0.15 93 1007.0
20260505180049 11 22 0.0 0.0 0.00 0.79 0.15 93 1007.0
20260505175541 11 25 0.0 0.0 0.00 0.79 0.15 93 1007.1
20260505175050 11 24 0.0 0.0 0.00 0.79 0.15 93 1007.1
20260505174642 11 24 0.0 0.0 0.00 0.15 0.15 93 1007.1
20260505174541 11 24 0.0 0.0 0.00 0.79 0.15 93 1007.1
20260505174050 11 24 0.0 0.0 0.00 0.79 0.15 93 1007.1
20260505173623 11 20 0.0 0.0 0.00 0.79 0.15 93 1007.1
20260505173108 11 19 0.0 0.0 0.00 0.79 0.15 93 1007.2
20260505172558 11 19 0.0 0.0 0.00 0.79 0.15 93 1007.2
20260505172105 11 19 0.0 0.0 0.00 0.79 0.15 93 1007.1
20260505171616 11 21 0.0 0.0 0.00 0.79 0.15 93 1007.1
20260505171504 11 21 0.0 0.0 0.00 0.15 0.15 93 1007.0
20260505171103 11 21 0.0 0.0 0.00 0.79 0.15 93 1007.1
20260505170553 11 17 0.0 0.0 0.00 0.79 0.15 93 1007.1
20260505170057 11 17 0.0 0.0 0.00 1.09 0.15 93 1007.1
20260505165549 12 17 0.0 0.0 0.00 1.09 0.15 93 1007.1
20260505165056 12 17 0.0 0.0 0.00 1.09 0.15 92 1007.1
20260505164650 11 17 0.0 0.0 0.00 0.23 0.15 92 1007.0
20260505164549 12 24 0.0 0.0 0.00 1.09 0.15 92 1007.1
20260505164117 12 34 0.0 0.0 0.00 1.09 0.15 92 1007.1
20260505163548 12 29 0.0 0.0 0.00 1.09 0.15 92 1007.2
20260505163156 11 21 0.0 0.0 0.00 0.23 0.15 93 1007.1
20260505163055 12 30 0.0 0.0 0.00 1.09 0.15 93 1007.1
20260505162547 12 22 0.0 0.0 0.00 1.09 0.15 93 1007.1
20260505162110 12 22 0.0 0.0 0.00 1.09 0.15 92 1007.0
20260505161600 12 28 0.0 0.0 0.00 1.09 0.15 92 1007.1
20260505161511 11 30 0.0 0.0 0.00 0.23 0.15 92 1007.0
20260505161109 12 32 0.0 0.0 0.00 1.09 0.15 92 1007.1
20260505160600 12 28 0.0 0.0 0.00 1.09 0.15 92 1007.1
20260505160150 12 48 0.0 0.0 0.00 0.79 0.15 92 1007.1
20260505153051 12 22 0.0 0.0 0.00 3.99 0.15 93 1007.4
20260505153006 12 22 0.0 0.0 0.00 0.79 0.15 93 1007.3
20260505152605 12 53 0.0 0.0 0.00 3.99 0.15 93 1007.5
20260505152049 12 136 0.0 0.0 0.00 3.99 0.15 93 1007.5
20260505151642 12 29 0.0 0.0 0.00 0.79 0.15 93 1007.5
20260505151541 12 23 0.0 0.0 0.00 3.99 0.15 93 1007.5
20260505151050 12 32 0.0 0.0 0.00 3.99 0.15 93 1007.7
20260505150542 12 31 0.0 0.0 0.00 3.99 0.15 92 1007.7
20260505140559 13 22 0.0 0.0 0.00 4.29 0.15 93 1007.6
20260505140106 13 29 0.0 0.0 0.00 4.29 0.15 93 1007.7
20260505124514 13 24 0.0 0.0 0.00 0.86 0.15 94 1008.2
20260505123009 13 36 0.0 0.0 0.00 0.86 0.15 94 1008.2
20260505121509 13 5 0.0 0.0 0.00 0.86 0.15 94 1008.4
20260505120006 13 25 0.0 0.0 0.00 0.86 0.15 95 1008.4
20260505114506 13 26 0.0 0.0 0.00 0.86 0.15 95 1008.6
20260505113005 13 29 0.0 0.0 0.00 0.86 0.15 95 1008.5
20260505111506 13 35 0.0 0.0 0.00 0.86 0.15 95 1008.5
20260505101503 14 17 0.0 0.0 0.00 0.86 0.15 96 1008.6
20260505100001 13 38 0.0 0.0 0.00 0.86 0.15 96 1008.7
20260505094601 13 21 0.0 0.0 0.00 0.86 0.15 96 1008.8
20260505093059 14 22 0.0 0.0 0.00 0.86 0.15 96 1008.8
20260505091559 14 17 0.0 0.0 0.00 0.86 0.15 96 1008.8
20260505090100 15 36 0.0 0.0 0.00 0.86 0.15 96 1008.9
20260505084557 15 61 0.0 0.0 0.00 0.86 0.15 96 1008.8
20260505083108 15 90 0.0 0.0 0.00 0.86 0.15 97 1008.7
20260505081558 14 97 0.0 0.0 0.00 0.86 0.15 96 1008.8
20260505080055 15 97 0.0 0.0 0.00 0.86 0.15 96 1008.8
20260505074554 14 97 0.0 0.0 0.00 0.86 0.15 96 1008.8
20260505073055 14 97 0.0 0.0 0.00 0.86 0.15 96 1008.8
20260505071550 14 97 0.0 0.0 0.00 0.86 0.15 96 1008.8
20260505070052 13 97 0.0 0.0 0.00 0.86 0.15 96 1009.0
20260505064559 13 97 0.0 0.0 0.00 0.86 0.15 96 1009.0
20260505063052 13 97 0.0 0.0 0.00 0.86 0.15 96 1009.0
20260505061548 13 97 0.0 0.0 0.00 0.86 0.15 96 1009.1
20260505060046 13 97 0.0 0.0 0.00 0.86 0.15 96 1009.1
20260505054556 13 97 0.0 0.0 0.00 0.86 0.15 96 1009.0
20260505053051 13 97 0.0 0.0 0.03 0.86 0.15 96 1009.1
20260505051545 13 97 0.0 0.0 0.03 0.86 0.15 96 1009.0
20260505041600 13 97 0.0 0.0 0.08 0.84 0.15 96 1009.0
20260505040041 13 97 0.0 0.0 0.08 0.84 0.15 95 1009.1
20260505034544 13 97 0.0 0.0 0.05 0.81 0.13 95 1009.2
20260505033039 13 97 0.0 0.0 0.05 0.79 0.10 95 1009.2
20260505031537 13 102 0.0 0.0 0.00 0.76 0.05 95 1009.4
20260505030036 12 102 0.0 0.0 0.00 0.76 0.05 95 1009.6
20260505024543 13 102 0.0 0.0 0.00 0.76 0.05 95 1009.6
20260505023040 13 102 0.0 0.0 0.00 0.76 0.05 95 1009.6
20260505021538 13 102 0.0 0.0 0.00 0.76 0.05 95 1009.6
20260505020032 13 102 0.0 0.0 0.05 0.76 0.05 95 1009.7
20260505014536 13 102 0.0 0.0 0.05 0.76 0.05 95 1009.7
20260505013030 13 102 0.0 0.0 0.05 0.76 0.05 95 1009.7
20260505011526 13 102 0.0 0.0 0.05 0.76 0.05 95 1009.8
20260505010025 13 102 0.0 0.0 0.03 0.71 0.03 95 1009.9
20260505004524 13 102 0.0 0.0 0.03 0.71 0.03 95 1010.0
20260505003021 13 102 0.0 0.0 0.00 0.71 0.00 95 1010.2
20260505001520 13 102 0.0 0.0 0.00 0.71 0.00 95 1010.3
20260505000029 13 102 0.0 0.0 0.00 0.71 0.00 95 1010.4